TimeEST,TemperatureF,Dew PointF,Humidity,Sea Level PressureIn,VisibilityMPH,Wind Direction,Wind SpeedMPH,Gust SpeedMPH,PrecipitationIn,Events,Conditions,WindDirDegrees,DateUTC
12:53 AM,73.9,64.0,71,30.10,10.0,East,10.4,-,N/A,,Scattered Clouds,100,2013-01-13 05:53:00
1:53 AM,73.9,64.9,73,30.10,10.0,East,13.8,-,N/A,,Scattered Clouds,90,2013-01-13 06:53:00
2:53 AM,73.9,64.9,73,30.09,10.0,East,13.8,-,N/A,,Scattered Clouds,100,2013-01-13 07:53:00
3:53 AM,73.9,63.0,68,30.08,10.0,ESE,13.8,-,N/A,,Scattered Clouds,120,2013-01-13 08:53:00
4:53 AM,73.9,63.0,68,30.09,10.0,ESE,11.5,-,N/A,,Scattered Clouds,120,2013-01-13 09:53:00
5:53 AM,73.0,62.1,68,30.09,10.0,ESE,10.4,-,N/A,,Partly Cloudy,120,2013-01-13 10:53:00
6:53 AM,73.0,62.1,68,30.09,10.0,ESE,10.4,-,N/A,,Scattered Clouds,120,2013-01-13 11:53:00
7:53 AM,73.9,63.0,68,30.09,10.0,ESE,16.1,-,N/A,,Scattered Clouds,120,2013-01-13 12:53:00
8:53 AM,75.9,64.9,69,30.10,10.0,SE,16.1,21.9,N/A,,Scattered Clouds,130,2013-01-13 13:53:00
9:53 AM,78.1,64.9,64,30.12,10.0,SE,16.1,-,N/A,,Scattered Clouds,140,2013-01-13 14:53:00
10:53 AM,79.0,64.9,62,30.11,10.0,ESE,16.1,-,N/A,,Scattered Clouds,110,2013-01-13 15:53:00
11:09 AM,78.8,66.2,65,30.11,10.0,ESE,15.0,-,N/A,,Mostly Cloudy,110,2013-01-13 16:09:00
11:53 AM,77.0,66.9,71,30.12,10.0,ESE,10.4,-,0.00,Rain,Light Rain,120,2013-01-13 16:53:00
12:53 PM,79.0,64.9,62,30.11,10.0,SE,10.4,-,0.00,,Mostly Cloudy,130,2013-01-13 17:53:00
1:37 PM,80.6,64.4,58,30.10,10.0,SE,10.4,-,N/A,,Mostly Cloudy,140,2013-01-13 18:37:00
1:53 PM,80.1,64.9,60,30.10,10.0,SE,11.5,-,N/A,,Mostly Cloudy,140,2013-01-13 18:53:00
2:53 PM,79.0,63.0,58,30.10,10.0,SE,11.5,-,N/A,,Mostly Cloudy,130,2013-01-13 19:53:00
3:53 PM,77.0,63.0,62,30.11,10.0,SSE,8.1,-,N/A,,Mostly Cloudy,150,2013-01-13 20:53:00
4:53 PM,77.0,63.0,62,30.12,10.0,SE,10.4,-,N/A,,Mostly Cloudy,130,2013-01-13 21:53:00
5:53 PM,75.9,63.0,64,30.13,10.0,ESE,11.5,-,N/A,,Mostly Cloudy,110,2013-01-13 22:53:00
6:53 PM,75.9,62.1,62,30.13,10.0,ESE,11.5,-,N/A,,Mostly Cloudy,110,2013-01-13 23:53:00
7:53 PM,75.9,63.0,64,30.13,10.0,ESE,11.5,-,N/A,,Mostly Cloudy,110,2013-01-14 00:53:00
8:53 PM,75.0,61.0,62,30.11,10.0,ESE,13.8,-,N/A,,Mostly Cloudy,120,2013-01-14 01:53:00
9:53 PM,75.0,60.1,60,30.11,10.0,ESE,11.5,-,N/A,,Mostly Cloudy,110,2013-01-14 02:53:00
10:53 PM,73.9,60.1,62,30.12,10.0,East,13.8,-,N/A,,Mostly Cloudy,100,2013-01-14 03:53:00
11:53 PM,73.9,60.1,62,30.13,10.0,ESE,8.1,-,N/A,,Scattered Clouds,110,2013-01-14 04:53:00